Weather History for Butte, MT

Change the Weather History Date:

Wednesday, March 5, 2014

  Actual Average Record
Temperature  
Mean Temperature 34 °F 28 °F  
Max Temperature 45 °F 40 °F 59 °F (1987)
Min Temperature 22 °F 15 °F -26 °F (1945)
Degree Days  
Heating Degree Days 31 37  
Month to date heating degree days 213 191  
Since 1 July heating degree days 6591 6760  
Cooling Degree Days 0 0  
Month to date cooling degree days 0 0  
Year to date cooling degree days 0 0  
Moisture  
Dew Point 25 °F    
Average Humidity 67    
Maximum Humidity 89    
Minimum Humidity 45    
Precipitation  
Precipitation T in 0.02 in 0.40 in (1920)
Month to date precipitation 0.17 0.10  
Year to date precipitation 1.03 1.00  
Sea Level Pressure  
Sea Level Pressure 29.92 in    
Wind  
Wind Speed 5 mph (SW)    
Max Wind Speed 16 mph    
Max Gust Speed 23 mph    
Visibility 10 miles    
Events Rain    
T = Trace of Precipitation, MM = Missing Value Source: NWS Daily Summary

Daily Weather History Graph

Daily Weather History Graph

Search for Another Location

Airport:

Trip Planner

Search our weather history database for the weather conditions in past years. The results will help you decide how hot, cold, wet, or windy it might be!

Date:

Astronomy

Mar. 05, 2014 Rise Set
Actual Time 7:01 AM MST 6:22 PM MST
Civil Twilight 6:31 AM MST 6:52 PM MST
Nautical Twilight 5:57 AM MST 7:26 PM MST
Astronomical Twilight 5:22 AM MST 8:01 PM MST
Moon 9:13 AM MST (3/5) 11:52 PM MST (3/5)
Length of Visible Light 12h 20m
Length of Day
11h 20m
Waxing Crescent, 24% of the Moon is Illuminated
Mar 5
Waxing Crescent
Mar 8
First Quarter
Mar 16
Full
Mar 23
Last Quarter
Mar 30
New

Hourly Weather History & Observations

Time (MST) Temp. Windchill Dew Point Humidity Pressure Visibility Wind Dir Wind Speed Gust Speed Precip Events Conditions
12:53 AM 30.9 °F - 21.9 °F 69% 30.02 in 10.0 mi Calm Calm - N/A   Mostly Cloudy
1:53 AM 35.1 °F 28.6 °F 21.9 °F 59% 30.00 in 10.0 mi WSW 8.1 mph - N/A   Partly Cloudy
2:53 AM 34.0 °F 27.2 °F 21.0 °F 59% 30.00 in 10.0 mi SW 8.1 mph - N/A   Clear
3:53 AM 35.1 °F 32.2 °F 21.0 °F 57% 29.99 in 10.0 mi WSW 3.5 mph - N/A   Clear
4:53 AM 30.9 °F 27.5 °F 19.9 °F 64% 30.00 in 10.0 mi ESE 3.5 mph - N/A   Clear
5:53 AM 28.9 °F 25.2 °F 19.0 °F 67% 30.00 in 10.0 mi North 3.5 mph - N/A   Clear
6:53 AM 25.0 °F 17.1 °F 18.0 °F 75% 30.02 in 10.0 mi North 6.9 mph - N/A   Mostly Cloudy
7:53 AM 24.1 °F 17.0 °F 18.0 °F 77% 30.01 in 10.0 mi South 5.8 mph - N/A   Clear
8:53 AM 28.0 °F - 19.0 °F 69% 29.99 in 8.0 mi Calm Calm - N/A   Clear
9:53 AM 35.1 °F 32.2 °F 24.1 °F 64% 29.93 in 10.0 mi North 3.5 mph - N/A   Overcast
10:53 AM 41.0 °F 36.4 °F 24.1 °F 51% 29.88 in 10.0 mi SE 6.9 mph - N/A   Partly Cloudy
11:53 AM 43.0 °F 38.8 °F 23.0 °F 45% 29.86 in 10.0 mi Variable 6.9 mph 16.1 mph N/A   Clear
12:53 PM 44.1 °F 38.6 °F 24.1 °F 45% 29.84 in 10.0 mi South 10.4 mph - N/A   Overcast
1:53 PM 44.1 °F 37.4 °F 25.0 °F 47% 29.85 in 10.0 mi WSW 13.8 mph 23.0 mph N/A   Overcast
2:53 PM 43.0 °F 36.4 °F 28.0 °F 56% 29.88 in 10.0 mi WSW 12.7 mph 20.7 mph N/A   Overcast
3:53 PM 43.0 °F - 28.0 °F 56% 29.86 in 10.0 mi Calm Calm - N/A   Overcast
4:53 PM 42.1 °F 38.4 °F 28.0 °F 58% 29.87 in 10.0 mi NE 5.8 mph - N/A   Overcast
5:53 PM 43.0 °F 36.4 °F 28.0 °F 56% 29.88 in 10.0 mi South 12.7 mph 19.6 mph N/A   Overcast
6:53 PM 39.0 °F 36.8 °F 30.0 °F 70% 29.92 in 10.0 mi WNW 3.5 mph - N/A   Overcast
7:53 PM 39.0 °F 35.7 °F 30.9 °F 73% 29.93 in 10.0 mi Variable 4.6 mph - N/A   Overcast
8:53 PM 39.0 °F 36.8 °F 30.9 °F 73% 29.87 in 10.0 mi NNE 3.5 mph - 0.00 in Rain Light Rain
9:53 PM 36.0 °F - 32.0 °F 86% 29.83 in 10.0 mi Calm Calm - 0.00 in   Mostly Cloudy
10:53 PM 34.0 °F 31.0 °F 30.9 °F 89% 29.79 in 10.0 mi East 3.5 mph - N/A   Partly Cloudy
11:53 PM 35.1 °F - 30.9 °F 85% 29.76 in 10.0 mi Calm Calm - N/A   Overcast